Printer-friendly version

IAU Minor Planet Center

Minor Planet Center

MPEC 2004-P35 : 2004 PE20

The following Minor Planet Electronic Circular may be linked-to from your own Web pages, but must not otherwise be redistributed electronically.


Read MPEC 2004-P34 Read MPEC 2004-P36


M.P.E.C. 2004-P35                                Issued 2004 Aug. 10, 11:56 UT

     The Minor Planet Electronic Circulars contain information on unusual
         minor planets and routine data on comets.  They are published
   on behalf of Commission 20 of the International Astronomical Union by the
          Minor Planet Center, Smithsonian Astrophysical Observatory,
                          Cambridge, MA 02138, U.S.A.

                  Supported in part by the Brinson Foundation
             Prepared using the Tamkin Foundation Computer Network

                              MPC@CFA.HARVARD.EDU
          URL http://cfa-www.harvard.edu/iau/mpc.html  ISSN 1523-6714

                                   2004 PE20

Observations:
     K04P20E  C2004 08 09.24708 21 17 09.55 -05 57 30.7          18.9   EP035704
     K04P20E  C2004 08 09.25648 21 17 09.99 -05 57 34.0          19.5   EP035704
     K04P20E  C2004 08 09.26582 21 17 10.33 -05 57 38.1          18.8   EP035704
     K04P20E  C2004 08 09.27532 21 17 10.72 -05 57 42.0          19.2   EP035704
     K04P20E* C2004 08 09.28176 21 17 11.10 -05 57 45.2          18.4 R EP035699
     K04P20E  C2004 08 09.29393 21 17 11.63 -05 57 49.6                 EP035699
     K04P20E  C2004 08 09.30609 21 17 12.13 -05 57 54.2                 EP035699
     K04P20E  C2004 08 09.31825 21 17 12.67 -05 57 58.7                 EP035699
     K04P20E 5C2004 08 09.42477 21 17 17.23 -05 58 37.4          19.0 R EP035673
     K04P20E 5C2004 08 09.42847 21 17 17.37 -05 58 39.3                 EP035673
     K04P20E 5C2004 08 09.43079 21 17 17.47 -05 58 39.8                 EP035673
     K04P20E 5C2004 08 09.43345 21 17 17.58 -05 58 40.8                 EP035673
     K04P20E  C2004 08 09.88120 21 17 42.56 -06 01 36.9                 EP035246
     K04P20E  C2004 08 09.88235 21 17 42.64 -06 01 37.9                 EP035246
     K04P20E  C2004 08 09.88450 21 17 42.74 -06 01 38.5                 EP035246
     K04P20E  C2004 08 09.88726 21 17 42.83 -06 01 39.9                 EP035246
     K04P20E  C2004 08 09.88824 21 17 42.87 -06 01 39.9                 EP035246
     K04P20E  C2004 08 09.88980 21 17 42.95 -06 01 41.2                 EP035246
     K04P20E  C2004 08 09.89220 21 17 43.11 -06 01 41.9                 EP035246
     K04P20E  C2004 08 10.03717 21 17 49.78 -06 02 35.1          19.3   EP035952
     K04P20E  C2004 08 10.03823 21 17 49.84 -06 02 35.6          18.4   EP035952
     K04P20E  C2004 08 10.03928 21 17 49.88 -06 02 36.2          18.4   EP035952
     K04P20E  C2004 08 10.04140 21 17 49.96 -06 02 36.7          19.7   EP035952
     K04P20E  C2004 08 10.04351 21 17 50.08 -06 02 37.8          18.7   EP035952
     K04P20E  C2004 08 10.19405 21 17 58.81 -06 03 35.5          18.7 R EP035850
     K04P20E  C2004 08 10.19664 21 17 59.15 -06 03 37.9          18.5 R EP035649
     K04P20E  C2004 08 10.20402 21 17 59.24 -06 03 39.7          18.8 R EP035850
     K04P20E  C2004 08 10.20722 21 17 59.60 -06 03 41.9          18.7 R EP035649
     K04P20E  C2004 08 10.21716 21 18 00.03 -06 03 45.9          18.7 R EP035649
     K04P20E  C2004 08 10.22097 21 18 00.00 -06 03 47.5          18.9 R EP035850
     K04P20E  C2004 08 10.26405 21 18 02.50 -06 04 01.6          18.4 R EP035854
     K04P20E 5C2004 08 10.26713 21 18 02.82 -06 04 03.7          18.5 R EP035673
     K04P20E  C2004 08 10.26756 21 18 02.62 -06 04 02.5          18.5 R EP035854
     K04P20E 5C2004 08 10.26968 21 18 02.94 -06 04 04.9                 EP035673
     K04P20E  C2004 08 10.27106 21 18 02.82 -06 04 04.9          18.6 R EP035854
     K04P20E 5C2004 08 10.27222 21 18 03.03 -06 04 05.9                 EP035673
     K04P20E 5C2004 08 10.27593 21 18 03.17 -06 04 07.2                 EP035673
     K04P20E  C2004 08 10.33658 21 18 05.58 -06 04 32.4          18.5 R EP035699
     K04P20E  C2004 08 10.34955 21 18 06.12 -06 04 36.8                 EP035699
     K04P20E  C2004 08 10.36253 21 18 06.67 -06 04 42.4                 EP035699
     K04P20E  C2004 08 10.37550 21 18 07.24 -06 04 47.7                 EP035699

Observer details:
246 Klet Observatory-KLENOT.  Observer M. Tichy.  1.06-m KLENOT Telescope
    + CCD.
649 Powell Observatory, Louisburg.  Observers R. Fredrick, R. Trentman.
    0.75-m Newtonian reflector + CCD.
673 Table Mountain Observatory, Wrightwood.  Observers J. Young, M. Vale.
    0.6-m reflector + CCD.
699 Lowell Observatory-LONEOS.  Observer B. A. Skiff.  0.59-m LONEOS Schmidt
    + CCD.
704 Lincoln Laboratory ETS, New Mexico.  Observers M. Blythe, F. Shelly,
    M. Bezpalko, R. Huber, L. Manguso, D. Torres, R. Kracke, M. McCleary,
    H. Stange, A. Milner.  Measurers J. Stuart, R. Sayer, J. Evans, J. Kommers.
    1.0-m f/2.15 reflector + CCD.
850 Cordell-Lorenz Observatory, Sewanee.  Observer D. T. Durig.  0.3-m f/5.75
    Schmidt-Cassegrain + CCD.
854 Sabino Canyon Observatory, Tucson.  Observer J. E. McGaha.  0.36-m f/10.0
    Schmidt-Cassegrain + CCD.
952 Marxuquera.  Observer J. J. Gomez.  0.25-m f/7.3 Schmidt-Cassegrain + CCD.

Orbital elements:
2004 PE20
Epoch 2004 Aug. 3.0 TT = JDT 2453220.5                  MPC
M 347.85893              (2000.0)            P               Q
n   0.29156715     Peri.  180.74539     +0.97320266     +0.22920331
a   2.2523903      Node   165.96283     -0.21057742     +0.92065550
e   0.4450901      Incl.    4.37552     -0.09237825     +0.31600520
P   3.38           H   20.3           G   0.15
From 41 observations 2004 Aug. 9-10.

Ephemeris:
2004 PE20                a,e,i = 2.25, 0.45, 4                   q = 1.2499
Date    TT    R. A. (2000) Decl.     Delta      r     Elong.  Phase     V
2004 08 03    21 12.05   -05 27.1    0.311    1.320   167.1     9.8    19.0
2004 08 13    21 20.51   -06 23.4    0.280    1.291   171.3     6.8    18.6
2004 08 23    21 31.19   -07 58.4    0.261    1.269   170.1     7.9    18.5
2004 09 02    21 45.29   -09 53.4    0.254    1.256   165.0    12.0    18.5
2004 09 12    22 02.98   -11 42.4    0.257    1.250   159.2    16.6    18.7
2004 09 22    22 23.73   -12 58.4    0.272    1.253   153.6    20.9    19.0
2004 10 02    22 46.34   -13 24.1    0.297    1.264   148.5    24.5    19.3
2004 10 12    23 09.36   -12 57.6    0.334    1.283   143.8    27.4    19.7
2004 10 22    23 31.97   -11 45.2    0.383    1.309   139.4    29.7    20.1
2004 11 01    23 53.74   -09 58.7    0.442    1.342   135.1    31.5    20.5
2004 11 11    00 14.56   -07 49.9    0.513    1.381   130.8    32.9    20.9
2004 11 21    00 34.64   -05 27.8    0.596    1.424   126.4    34.0    21.4
2004 12 01    00 54.17   -02 59.9    0.690    1.472   121.9    34.7    21.8

Timothy B. Spahr             (C) Copyright 2004 MPC           M.P.E.C. 2004-P35

Read MPEC 2004-P34 Read MPEC 2004-P36


Our Web policy. Index to the CBAT/MPC/ICQ pages.


Valid HTML 4.01!